Regional Weather Roundup
Issued by NWS

Home | Current Version | Previous Version | Graphics & Text | Print | Product List | Glossary On
Versions: 1 2 3 4 5 6 7 8 9 10 11 12 13 14 15 16 17 18 19 20 21 22 23 24 25 26 27 28 29 30 31 32 33 34 35 36 37 38 39 40 41 42 43 44 45 46 47 48 49 50
000
ASUS45 KCYS 231910
RWRWY

WYOMING REGIONAL WEATHER ROUNDUP
NATIONAL WEATHER SERVICE CHEYENNE WY
100 PM MDT TUE SEP 23 2014

NOTE:  "FAIR" INDICATES FEW OR NO CLOUDS BELOW 12,000 FEET
WITH NO SIGNIFICANT WEATHER AND/OR OBSTRUCTIONS TO VISIBILITY.

WYZ001-232000-
YELLOWSTONE NATIONAL PARK

CITY           SKY/WX    TMP DP  RH WIND       PRES   REMARKS
LK YELLOWSTONE   N/A     54  46  74 CALM      30.36F
W YELLOWSTONE  NOT AVBL

$$
WYZ002>013-054>058-071-098>099-232000-
NORTHERN WYOMING

CITY           SKY/WX    TMP DP  RH WIND       PRES   REMARKS
JACKSON        MOSUNNY   64  50  59 SW6       30.28F
CODY           MOSUNNY   75  45  33 W7        30.11S
GREYBULL       SUNNY     78  45  30 NE3       30.05F
WORLAND        SUNNY     76  44  32 CALM      30.07F
SHERIDAN       SUNNY     80  47  31 NW20      30.02R
BUFFALO        MOSUNNY   75  47  36 N18       30.08R
GILLETTE       MOSUNNY   78  47  33 NW18      30.01S
HULETT         FAIR      73  52  46 MISG      30.01
NEWCASTLE      FAIR      72  46  40 MISG      30.03

$$
WYZ014>020-022>026-101>103-232000-
CENTRAL WYOMING

CITY           SKY/WX    TMP DP  RH WIND       PRES   REMARKS
BIG PINEY      SUNNY     69  42  37 VRB7      30.28F
PINEDALE       CLEAR     64  43  45 W14       30.29F
DUBOIS         FAIR      66  36  32 NW14G21   30.26S
LANDER         SUNNY     76  39  26 VRB3      30.15S
RIVERTON       SUNNY     73  43  33 NE7       30.16F
CASPER         MOSUNNY   78  39  24 SW13G18   30.11S
DOUGLAS        SUNNY     79  42  26 W17G24    30.08S

$$
WYZ021-027>030-104>119-232000-
SOUTHERN WYOMING

CITY           SKY/WX    TMP DP  RH WIND       PRES   REMARKS
EVANSTON       MOSUNNY   69  42  37 SW16      30.31F
KEMMERER       CLEAR     64  43  45 W17       30.32F
FORT BRIDGER   MOCLDY    73  44  35 W16G23    30.33F
ROCK SPRINGS   MOSUNNY   67  43  41 NW20      30.28F
DIXON          CLOUDY    67  48  51 W13G18    30.30S
RAWLINS        MOSUNNY   68  41  37 W22G29    30.24F
SARATOGA       CLOUDY    68  43  40 W20G28    30.28S
LARAMIE        PTSUNNY   65  39  38 NW16G22   30.24R
CHEYENNE       MOSUNNY   72  39  30 NW17G28   30.16F
TORRINGTON     SUNNY     81  47  30 W10       30.01F
PINE BLUFFS    MOCLDY    75  41  29 NW23G31   30.10F

$$



USA.gov is the U.S. government's official web portal to all federal, state and local government web resources and services.